Location: Newark
(45.9456°N, 15.4064°E)
Time: 01:40:29
(UTC+00:00)

Courier 1B Rocket - Pass Details

Date: 23 January 2020
Orbit: 920 x 1202 km, 28.2° (Epoch: 21 February)

Event Time Altitude Azimuth Distance (km) Brightness Sun altitude
Rises 12:54:16 0° 234° (SW) 3,780 9.1 20.4°
Reaches altitude 10° 12:58:10 10° 214° (SW) 2,768 9.6 20.1°
Maximum altitude 13:01:58 16° 179° (S) 2,311 8.3 19.8°
Drops below altitude 10° 13:05:40 10° 144° (SE) 2,671 7.7 19.5°
Sets 13:09:20 0° 123° (ESE) 3,581 8.0 19.2°
